Weather History for Page, AZ

Change the Weather History Date:

Friday, June 7, 2013

  Actual Average Record
Temperature  
Mean Temperature 84 °F -  
Max Temperature 99 °F 87 °F 103 °F (1985)
Min Temperature 69 °F 61 °F 44 °F (1993)
Cooling Degree Days 19    
Growing Degree Days 34 (Base 50)    
Moisture  
Dew Point 23 °F    
Average Humidity 10    
Maximum Humidity 19    
Minimum Humidity 4    
Precipitation  
Precipitation 0.00 in - - ()
Sea Level Pressure  
Sea Level Pressure 29.71 in    
Wind  
Wind Speed 3 mph (WNW)    
Max Wind Speed 15 mph    
Max Gust Speed 25 mph    
Visibility 10 miles    
Events      
Averages and records for this station are not official NWS values.
T = Trace of Precipitation, MM = Missing Value Source: NWS Daily Summary

Daily Weather History Graph

Daily Weather History Graph

Search for Another Location

Airport:

Trip Planner

Search our weather history database for the weather conditions in past years. The results will help you decide how hot, cold, wet, or windy it might be!

Date:

Astronomy

Jun. 07, 2013 Rise Set
Actual Time 5:06 AM MST 7:43 PM MST
Civil Twilight 4:35 AM MST 8:13 PM MST
Nautical Twilight 3:57 AM MST 8:51 PM MST
Astronomical Twilight 3:15 AM MST 9:34 PM MST
Moon 4:29 AM MST (6/7) 7:01 PM MST (6/7)
Length of Visible Light 15h 38m
Length of Day
14h 37m
Waning Crescent, 1% of the Moon is Illuminated
Jun 7
Waning Crescent
Jun 8
New
Jun 16
First Quarter
Jun 23
Full
Jun 29
Last Quarter

Hourly Weather History & Observations

Time (MST) Temp. Dew Point Humidity Pressure Visibility Wind Dir Wind Speed Gust Speed Precip Events Conditions
12:53 AM 80.1 °F 24.1 °F 13% 29.74 in 10.0 mi West 4.6 mph - N/A   Clear
1:53 AM 79.0 °F 23.0 °F 13% 29.74 in 10.0 mi WNW 3.5 mph - N/A   Clear
2:53 AM 73.9 °F 24.1 °F 16% 29.75 in 10.0 mi Calm Calm - N/A   Clear
3:53 AM 72.0 °F 25.0 °F 17% 29.77 in 10.0 mi Calm Calm - N/A   Clear
4:53 AM 71.1 °F 25.0 °F 18% 29.77 in 10.0 mi Calm Calm - N/A   Clear
5:53 AM 71.1 °F 26.1 °F 19% 29.78 in 10.0 mi SW 4.6 mph - N/A   Clear
6:53 AM 75.9 °F 25.0 °F 15% 29.80 in 10.0 mi SW 3.5 mph - N/A   Clear
7:53 AM 80.1 °F 24.1 °F 13% 29.80 in 10.0 mi Calm Calm - N/A   Clear
8:53 AM 84.0 °F 24.1 °F 11% 29.79 in 10.0 mi Calm Calm - N/A   Clear
9:53 AM 88.0 °F 24.1 °F 10% 29.78 in 10.0 mi Calm Calm - N/A   Clear
10:53 AM 91.0 °F 23.0 °F 8% 29.77 in 10.0 mi Variable 4.6 mph - N/A   Clear
11:53 AM 93.9 °F 25.0 °F 8% 29.75 in 10.0 mi NNE 8.1 mph - N/A   Clear
12:53 PM 93.0 °F 24.1 °F 8% 29.73 in 10.0 mi SSE 5.8 mph - N/A   Clear
1:53 PM 96.1 °F 23.0 °F 7% 29.69 in 10.0 mi Variable 6.9 mph - N/A   Clear
2:53 PM 97.0 °F 21.0 °F 6% 29.66 in 10.0 mi ENE 4.6 mph - N/A   Clear
3:53 PM 100.0 °F 19.0 °F 5% 29.63 in 10.0 mi Variable 5.8 mph - N/A   Clear
4:53 PM 98.1 °F 18.0 °F 6% 29.62 in 10.0 mi North 3.5 mph - N/A   Clear
5:53 PM 99.0 °F 18.0 °F 5% 29.60 in 10.0 mi NW 5.8 mph - N/A   Clear
6:53 PM 96.1 °F 19.9 °F 6% 29.62 in 10.0 mi WNW 15.0 mph 25.3 mph N/A   Clear
7:53 PM 91.9 °F 21.0 °F 8% 29.63 in 10.0 mi NW 5.8 mph - N/A   Clear
8:53 PM 89.1 °F 21.9 °F 9% 29.64 in 10.0 mi NNW 3.5 mph - N/A   Clear
9:53 PM 82.9 °F 26.1 °F 13% 29.66 in 10.0 mi Calm Calm - N/A   Clear
10:53 PM 82.0 °F 26.1 °F 13% 29.65 in 10.0 mi Calm Calm - N/A   Clear
11:53 PM 80.1 °F 26.1 °F 14% 29.65 in 10.0 mi WSW 4.6 mph - N/A   Clear